KC9MVM Weather Reports


Display with metric or nautical units.
time (UTC)temp
F
wind
direction
speed
MPH
gust
MPH
rain 1hr
in
rain 24hr
in
rain mn
in
humidity
%
barometer
mb
20260905195507 74 250 0.0 8.0 0.17 0.17 0.17 84 1012.5
20260905195011 76 250 0.0 14.0 0.16 0.16 0.16 75 1012.8
20260905194506 80 223 3.0 15.0 0.13 0.13 0.13 69 1013.0
20260905194003 84 315 7.0 15.0 0.07 0.07 0.07 69 1013.3
20260905193508 86 96 0.0 0.0 0.00 0.00 0.00 75 1012.7
20260905193005 88 96 0.0 0.0 0.00 0.00 0.00 69 1012.7
20260905192505 88 96 0.0 1.0 0.00 0.00 0.00 69 1012.4
20260905192008 89 96 0.0 6.0 0.00 0.00 0.00 66 1012.5
20260905191503 90 96 0.0 6.0 0.00 0.00 0.00 63 1012.7
20260905191004 91 86 0.0 0.0 0.00 0.00 0.00 62 1012.8
20260905190504 91 86 0.0 0.0 0.00 0.00 0.00 60 1012.8
20260905190026 91 86 0.0 0.0 0.00 0.00 0.00 66 1012.7
20260905185504 90 111 0.0 0.0 0.00 0.00 0.00 63 1012.8
20260905185006 89 111 0.0 0.0 0.00 0.00 0.00 67 1012.9
20260905184515 90 111 0.0 0.0 0.00 0.00 0.00 61 1013.1
20260905184008 90 111 0.0 0.0 0.00 0.00 0.00 61 1013.2
20260905183503 91 111 0.0 0.0 0.00 0.00 0.00 64 1013.3
20260905183016 91 111 0.0 6.0 0.00 0.00 0.00 62 1013.3
20260905182508 91 111 0.0 6.0 0.00 0.00 0.00 61 1013.4
20260905182010 91 107 0.0 7.0 0.00 0.00 0.00 66 1013.4
20260905181512 90 107 0.0 7.0 0.00 0.00 0.00 65 1013.5
20260905181007 90 104 0.0 3.0 0.00 0.00 0.00 67 1013.5
20260905180506 90 104 0.0 3.0 0.00 0.00 0.00 69 1013.6
20260905180008 90 104 0.0 3.0 0.00 0.00 0.00 67 1013.7
20260905175504 89 104 0.0 3.0 0.00 0.00 0.00 65 1013.8
20260905175006 90 104 0.0 3.0 0.00 0.00 0.00 63 1013.8
20260905174512 89 104 0.0 1.0 0.00 0.00 0.00 66 1013.9
20260905174005 88 104 0.0 0.0 0.00 0.00 0.00 66 1013.9
20260905173507 88 104 0.0 1.0 0.00 0.00 0.00 66 1013.8
20260905173015 88 104 0.0 1.0 0.00 0.00 0.00 66 1013.8
20260905172504 88 104 0.0 7.0 0.00 0.00 0.00 65 1013.9
20260905172004 87 104 0.0 7.0 0.00 0.00 0.00 69 1013.9
20260905171518 88 96 0.0 0.0 0.00 0.00 0.00 66 1013.9
20260905171012 87 96 0.0 1.0 0.00 0.00 0.00 66 1014.0
20260905170503 86 96 0.0 7.0 0.00 0.00 0.00 66 1014.1
20260905170014 86 96 3.0 7.0 0.00 0.00 0.00 70 1014.2
20260905165503 86 98 0.0 1.0 0.00 0.00 0.00 66 1014.3
20260905165004 87 98 0.0 4.0 0.00 0.00 0.00 67 1014.3
20260905164510 87 98 1.0 4.0 0.00 0.00 0.00 70 1014.3
20260905164004 86 97 0.0 0.0 0.00 0.00 0.00 73 1014.2
20260905163507 84 97 0.0 0.0 0.00 0.00 0.00 70 1014.2
20260905163010 83 97 0.0 1.0 0.00 0.00 0.00 72 1014.2
20260905162509 83 97 0.0 4.0 0.00 0.00 0.00 70 1014.2
20260905162008 83 97 0.0 4.0 0.00 0.00 0.00 69 1014.3
20260905161507 83 97 0.0 7.0 0.00 0.00 0.00 69 1014.4
20260905161004 84 97 1.0 7.0 0.00 0.00 0.00 69 1014.2
20260905160510 84 98 0.0 7.0 0.00 0.00 0.00 70 1014.2
20260905160027 85 97 0.0 4.0 0.00 0.00 0.00 66 1014.2
20260905155506 84 97 0.0 9.0 0.00 0.00 0.00 69 1014.3
20260905155007 84 97 1.0 9.0 0.00 0.00 0.00 67 1014.5
20260905154504 83 96 2.0 9.0 0.00 0.00 0.00 70 1014.6
20260905154004 83 101 3.0 9.0 0.00 0.00 0.00 67 1014.6
20260905153505 83 101 2.0 9.0 0.00 0.00 0.00 69 1014.5
20260905153013 83 99 2.0 9.0 0.00 0.00 0.00 69 1014.4
20260905152506 83 99 4.0 9.0 0.00 0.00 0.00 69 1014.3
20260905152004 83 104 0.0 9.0 0.00 0.00 0.00 72 1014.3
20260905151516 83 104 2.0 9.0 0.00 0.00 0.00 70 1014.2
20260905151010 83 100 1.0 8.0 0.00 0.00 0.00 70 1014.3
20260905150510 83 100 0.0 8.0 0.00 0.00 0.00 71 1014.4
20260905150018 83 102 2.0 8.0 0.00 0.00 0.00 71 1014.7
20260905145509 83 101 0.0 4.0 0.00 0.00 0.00 72 1014.5
20260905145011 82 101 0.0 10.0 0.00 0.00 0.00 72 1014.5
20260905144508 82 101 3.0 10.0 0.00 0.00 0.00 71 1014.5
20260905144008 82 105 0.0 8.0 0.00 0.00 0.00 73 1014.5
20260905143504 82 105 0.0 7.0 0.00 0.00 0.00 73 1014.5
20260905143019 82 104 2.0 9.0 0.00 0.00 0.00 75 1014.5
20260905142506 81 104 0.0 9.0 0.00 0.00 0.00 75 1014.4
20260905142006 81 99 0.0 8.0 0.00 0.00 0.00 75 1014.3
20260905141520 81 99 0.0 9.0 0.00 0.00 0.00 76 1014.3
20260905141005 81 98 3.0 9.0 0.00 0.00 0.00 77 1014.5
20260905140508 81 116 3.0 8.0 0.00 0.00 0.00 77 1014.5
20260905140024 80 126 2.0 7.0 0.00 0.00 0.00 80 1014.5
20260905135513 79 126 1.0 7.0 0.00 0.00 0.00 80 1014.5
20260905135006 79 128 0.0 8.0 0.00 0.00 0.00 83 1014.5
20260905134524 78 128 3.0 8.0 0.00 0.00 0.00 83 1014.5
20260905134012 77 129 1.0 11.0 0.00 0.00 0.00 84 1014.5
20260905133505 76 129 4.0 11.0 0.00 0.00 0.00 85 1014.5
20260905133025 76 220 0.0 0.0 0.00 0.00 0.00 87 1014.4
20260905132504 77 220 0.0 0.0 0.00 0.00 0.00 85 1014.2
20260905132005 77 220 0.0 0.0 0.00 0.00 0.00 85 1014.2
20260905131527 77 220 0.0 0.0 0.00 0.00 0.00 87 1014.1
20260905131009 76 220 0.0 0.0 0.00 0.00 0.00 88 1014.1
20260905130508 75 220 0.0 0.0 0.00 0.00 0.00 89 1014.1
20260905130032 74 220 0.0 0.0 0.00 0.00 0.00 90 1014.1
20260905125508 74 220 0.0 0.0 0.00 0.00 0.00 90 1014.0
20260905125010 74 220 0.0 0.0 0.00 0.00 0.00 90 1014.0
20260905124527 74 220 0.0 0.0 0.00 0.00 0.00 90 1014.0
20260905124005 74 220 0.0 0.0 0.00 0.00 0.00 90 1013.9
20260905123510 74 220 0.0 0.0 0.00 0.00 0.00 90 1013.9
20260905123027 74 220 0.0 0.0 0.00 0.00 0.00 90 1013.9
20260905122518 74 220 0.0 0.0 0.00 0.00 0.00 90 1013.8
20260905122010 73 220 0.0 0.0 0.00 0.00 0.00 90 1013.8
20260905121513 73 220 0.0 0.0 0.00 0.00 0.00 90 1013.8
20260905121005 73 220 0.0 0.0 0.00 0.00 0.00 90 1013.8
20260905120503 73 220 0.0 0.0 0.00 0.00 0.00 90 1013.7
20260905120016 73 220 0.0 0.0 0.00 0.00 0.00 90 1013.7
20260905115508 73 220 0.0 0.0 0.00 0.00 0.00 90 1013.8
20260905115004 73 220 0.0 0.0 0.00 0.00 0.00 90 1013.8
20260905114516 73 220 0.0 0.0 0.00 0.00 0.00 90 1013.8
20260905114013 73 220 0.0 0.0 0.00 0.00 0.00 90 1013.6
20260905113504 73 220 0.0 0.0 0.00 0.00 0.00 90 1013.6
20260905113008 73 220 0.0 0.0 0.00 0.00 0.00 90 1013.6
20260905112505 73 220 0.0 0.0 0.00 0.00 0.00 90 1013.6
20260905112003 73 220 0.0 0.0 0.00 0.00 0.00 90 1013.6
20260905111508 73 220 0.0 0.0 0.00 0.00 0.00 90 1013.7
20260905111005 73 220 0.0 0.0 0.00 0.00 0.00 90 1013.6
20260905110509 73 220 0.0 0.0 0.00 0.00 0.00 90 1013.6
20260905110005 72 220 0.0 0.0 0.00 0.00 0.00 90 1013.6
20260905105506 73 220 0.0 0.0 0.00 0.00 0.00 90 1013.6
20260905105009 73 220 0.0 0.0 0.00 0.00 0.00 90 1013.6
20260905104518 73 220 0.0 0.0 0.00 0.00 0.00 90 1013.5
20260905104006 73 220 0.0 0.0 0.00 0.00 0.00 90 1013.5
20260905103509 73 220 0.0 0.0 0.00 0.00 0.00 90 1013.6
20260905103026 73 220 0.0 0.0 0.00 0.00 0.00 90 1013.6
20260905102503 73 220 0.0 0.0 0.00 0.00 0.00 90 1013.6
20260905102003 73 220 0.0 0.0 0.00 0.00 0.00 90 1013.6
20260905101509 73 220 0.0 0.0 0.00 0.00 0.00 90 1013.5
20260905101004 73 220 0.0 0.0 0.00 0.00 0.00 89 1013.5
20260905100506 73 220 0.0 0.0 0.00 0.00 0.00 89 1013.5
20260905100019 73 220 0.0 0.0 0.00 0.00 0.00 89 1013.5
20260905095506 73 220 0.0 0.0 0.00 0.00 0.00 89 1013.5
20260905095006 73 220 0.0 0.0 0.00 0.00 0.00 89 1013.5
20260905094515 73 220 0.0 0.0 0.00 0.00 0.00 89 1013.4
20260905094009 73 220 0.0 0.0 0.00 0.00 0.00 89 1013.5
20260905093509 74 220 0.0 0.0 0.00 0.00 0.00 89 1013.5
20260905093007 73 220 0.0 0.0 0.00 0.00 0.00 89 1013.5
20260905092506 73 220 0.0 0.0 0.00 0.00 0.00 89 1013.5
20260905092010 73 220 0.0 0.0 0.00 0.00 0.00 90 1013.5
20260905091507 73 220 0.0 0.0 0.00 0.00 0.00 90 1013.4
20260905091003 73 220 0.0 0.0 0.00 0.00 0.00 90 1013.3
20260905090503 73 220 0.0 0.0 0.00 0.00 0.00 89 1013.3
20260905090008 74 220 0.0 0.0 0.00 0.00 0.00 89 1013.2
20260905085508 74 220 0.0 0.0 0.00 0.00 0.00 89 1013.1
20260905085011 74 220 0.0 0.0 0.00 0.00 0.00 89 1013.1
20260905084516 74 220 0.0 0.0 0.00 0.00 0.00 89 1013.1
20260905084004 74 220 0.0 0.0 0.00 0.00 0.00 90 1013.1
20260905083506 74 220 0.0 0.0 0.00 0.00 0.00 89 1013.0
20260905083019 74 220 0.0 0.0 0.00 0.00 0.00 89 1013.0
20260905082510 74 220 0.0 0.0 0.00 0.00 0.00 89 1013.0
20260905082005 74 220 0.0 0.0 0.00 0.00 0.00 89 1012.9
20260905081517 74 220 0.0 0.0 0.00 0.00 0.00 90 1012.9
20260905081012 74 220 0.0 0.0 0.00 0.00 0.00 90 1013.0
20260905080504 74 220 0.0 0.0 0.00 0.00 0.00 90 1013.0
20260905080010 74 220 0.0 0.0 0.00 0.00 0.00 90 1013.0
20260905075505 74 220 0.0 0.0 0.00 0.00 0.00 90 1013.0
20260905075003 74 220 0.0 0.0 0.00 0.00 0.00 90 1012.9
20260905074512 74 220 0.0 0.0 0.00 0.00 0.00 90 1013.0
20260905074009 74 220 0.0 0.0 0.00 0.00 0.00 90 1013.1
20260905073507 74 220 0.0 0.0 0.00 0.00 0.00 90 1013.0
20260905073023 74 220 0.0 0.0 0.00 0.00 0.00 90 1013.0
20260905072510 74 220 0.0 0.0 0.00 0.00 0.00 90 1013.0
20260905072008 74 220 0.0 0.0 0.00 0.00 0.00 90 1013.0
20260905071537 74 220 0.0 0.0 0.00 0.00 0.00 90 1013.1
20260905071006 74 220 0.0 0.0 0.00 0.00 0.00 90 1013.1
20260905070506 74 220 0.0 0.0 0.00 0.00 0.00 90 1013.2
20260905070028 74 220 0.0 0.0 0.00 0.00 0.00 90 1013.2
20260905065505 74 220 0.0 0.0 0.00 0.00 0.00 90 1013.2
20260905065004 74 220 0.0 0.0 0.00 0.00 0.00 90 1013.4
20260905064510 74 220 0.0 0.0 0.00 0.00 0.00 90 1013.4
20260905064004 74 220 0.0 0.0 0.00 0.00 0.00 90 1013.5
20260905063509 74 220 0.0 0.0 0.00 0.00 0.00 89 1013.6
20260905063018 74 220 0.0 0.0 0.00 0.00 0.00 89 1013.6
20260905062509 75 220 0.0 0.0 0.00 0.00 0.00 89 1013.7
20260905062010 75 220 0.0 0.0 0.00 0.00 0.00 89 1013.8
20260905061513 75 220 0.0 0.0 0.00 0.00 0.00 89 1013.8
20260905061009 75 220 0.0 0.0 0.00 0.00 0.00 90 1013.8
20260905060511 75 220 0.0 0.0 0.00 0.00 0.00 89 1013.8
20260905060010 75 220 0.0 0.0 0.00 0.00 0.00 89 1013.7
20260905055505 75 220 0.0 0.0 0.00 0.00 0.00 89 1013.8
20260905055238 75 220 0.0 0.0 0.00 0.00 0.00 89 1013.7
20260905055234 75 220 0.0 0.0 0.00 0.00 0.00 90 1013.8
20260905055230 75 220 0.0 0.0 0.00 0.00 0.00 89 1013.8
20260905055224 75 220 0.0 0.0 0.00 0.00 0.00 89 1013.9
20260905025015 77 220 0.0 0.0 0.00 0.00 0.00 89 1014.1
20260905024526 77 220 0.0 0.0 0.00 0.00 0.00 89 1014.1
20260905024012 77 220 0.0 0.0 0.00 0.00 0.00 88 1014.0
20260905023514 77 220 0.0 0.0 0.00 0.00 0.00 89 1013.9
20260905023028 77 220 0.0 0.0 0.00 0.00 0.00 88 1013.9
20260905022506 78 220 0.0 0.0 0.00 0.00 0.00 88 1013.9
20260905022010 78 220 0.0 0.0 0.00 0.00 0.00 88 1013.9
20260905021512 78 220 0.0 0.0 0.00 0.00 0.00 88 1013.9
20260905021006 78 220 0.0 0.0 0.00 0.00 0.00 88 1013.9
20260905020508 78 220 0.0 0.0 0.00 0.00 0.00 88 1013.9
20260905020019 78 220 0.0 0.0 0.00 0.00 0.00 88 1013.9
20260905015512 78 220 0.0 0.0 0.00 0.00 0.00 87 1013.9
20260905015006 78 220 0.0 0.0 0.00 0.00 0.00 87 1013.9
20260905014524 79 220 0.0 0.0 0.00 0.00 0.00 87 1013.9
20260905014013 79 220 0.0 0.0 0.00 0.00 0.00 87 1013.9
20260905013513 79 220 0.0 0.0 0.00 0.00 0.00 87 1013.8
20260905013018 79 220 0.0 0.0 0.00 0.00 0.00 87 1013.8
20260905012513 79 220 0.0 0.0 0.00 0.00 0.00 86 1013.7
20260905012017 79 220 0.0 0.0 0.00 0.00 0.00 86 1013.7
20260905011515 79 220 0.0 0.0 0.00 0.00 0.00 86 1013.6
20260905011011 79 220 0.0 0.0 0.00 0.00 0.00 86 1013.5
20260905010507 80 220 0.0 0.0 0.00 0.00 0.00 85 1013.4
20260905010018 80 220 0.0 0.0 0.00 0.00 0.00 85 1013.4
20260905005507 80 220 0.0 0.0 0.00 0.00 0.00 85 1013.4
20260905005012 80 220 0.0 0.0 0.00 0.00 0.00 84 1013.4
20260905004532 80 220 0.0 0.0 0.00 0.00 0.00 83 1013.3
20260905004005 80 220 0.0 0.0 0.00 0.00 0.00 83 1013.2
20260905003513 80 220 0.0 0.0 0.00 0.00 0.00 82 1013.2
20260905003029 81 220 0.0 0.0 0.00 0.00 0.00 81 1013.2
20260905002514 81 220 0.0 0.0 0.00 0.00 0.00 81 1013.2
20260905002008 82 220 0.0 0.0 0.00 0.00 0.00 80 1013.2
20260905001529 82 220 0.0 0.0 0.00 0.00 0.00 79 1013.2
20260905001016 82 220 0.0 0.0 0.00 0.00 0.00 78 1013.2
20260905000508 82 220 0.0 0.0 0.00 0.00 0.00 79 1013.2
20260905000027 83 220 0.0 0.0 0.00 0.00 0.00 78 1013.2
20260904235505 83 220 0.0 0.0 0.00 0.00 0.00 76 1013.3
20260904235008 84 220 0.0 0.0 0.00 0.00 0.00 75 1013.3
20260904234523 84 220 0.0 0.0 0.00 0.00 0.00 74 1013.3
20260904234008 84 220 0.0 0.0 0.00 0.00 0.00 74 1013.3
20260904233513 85 220 0.0 0.0 0.00 0.00 0.00 72 1013.3
20260904233016 86 220 0.0 0.0 0.00 0.00 0.00 72 1013.3
20260904232512 86 220 0.0 0.0 0.00 0.00 0.00 67 1013.3
20260904232017 88 220 0.0 1.0 0.00 0.00 0.00 64 1013.3
20260904231511 88 220 0.0 1.0 0.00 0.00 0.00 64 1013.2
20260904231004 88 220 0.0 0.0 0.00 0.00 0.00 61 1013.1
20260904230506 88 220 0.0 1.0 0.00 0.00 0.00 61 1013.1
20260904230011 89 220 0.0 1.0 0.00 0.00 0.00 62 1013.1
20260904225507 89 220 0.0 1.0 0.00 0.00 0.00 62 1013.1
20260904225007 90 220 0.0 3.0 0.00 0.00 0.00 60 1013.1
20260904224518 90 220 0.0 3.0 0.00 0.00 0.00 62 1013.1
20260904224008 90 220 0.0 1.0 0.00 0.00 0.00 59 1013.1
20260904223508 90 220 0.0 1.0 0.00 0.00 0.00 59 1013.1
20260904223028 91 220 0.0 1.0 0.00 0.00 0.00 57 1013.0
20260904222504 91 220 0.0 2.0 0.00 0.00 0.00 57 1013.0
20260904222008 91 220 0.0 2.0 0.00 0.00 0.00 56 1013.1
20260904221526 90 220 0.0 5.0 0.00 0.00 0.00 59 1013.1
20260904221014 92 220 0.0 5.0 0.00 0.00 0.00 55 1013.1
20260904220510 92 220 0.0 1.0 0.00 0.00 0.00 55 1013.1
20260904220012 93 220 0.0 7.0 0.00 0.00 0.00 53 1013.2
20260904215506 92 220 1.0 7.0 0.00 0.00 0.00 55 1013.3
20260904215012 92 220 0.0 6.0 0.00 0.00 0.00 52 1013.3
20260904214522 93 220 0.0 9.0 0.00 0.00 0.00 55 1013.3
20260904214010 93 220 2.0 9.0 0.00 0.00 0.00 52 1013.4
20260904213513 93 225 1.0 7.0 0.00 0.00 0.00 51 1013.3
20260904213025 93 225 0.0 5.0 0.00 0.00 0.00 54 1013.4
20260904212512 93 225 1.0 7.0 0.00 0.00 0.00 54 1013.4
20260904212010 93 225 2.0 7.0 0.00 0.00 0.00 54 1013.4
20260904211527 93 226 2.0 7.0 0.00 0.00 0.00 53 1013.4
20260904211006 93 225 0.0 6.0 0.00 0.00 0.00 54 1013.4
20260904210512 93 225 0.0 5.0 0.00 0.00 0.00 53 1013.4
20260904210038 94 225 0.0 7.0 0.00 0.00 0.00 54 1013.5
20260904205506 93 224 0.0 7.0 0.00 0.00 0.00 53 1013.5
20260904205007 94 225 0.0 6.0 0.00 0.00 0.00 51 1013.5
20260904204521 94 225 0.0 6.0 0.00 0.00 0.00 52 1013.7
20260904204008 94 225 0.0 8.0 0.00 0.00 0.00 53 1013.9
20260904203508 94 227 1.0 8.0 0.00 0.00 0.00 53 1013.9
20260904203018 94 229 1.0 7.0 0.00 0.00 0.00 50 1014.0
20260904202517 94 229 1.0 7.0 0.00 0.00 0.00 52 1014.2
20260904202008 94 229 0.0 7.0 0.00 0.00 0.00 54 1014.2
20260904201518 94 229 1.0 7.0 0.00 0.00 0.00 57 1014.3
20260904201011 94 229 0.0 6.0 0.00 0.00 0.00 51 1014.4
20260904200520 94 229 0.0 7.0 0.00 0.00 0.00 55 1014.5
20260904200019 94 229 3.0 7.0 0.00 0.00 0.00 54 1014.6